Regional Weather Roundup
Issued by NWS

Home | Current Version | Previous Version | Graphics & Text | Print | Product List | Glossary On
Versions: 1 2 3 4 5 6 7 8 9 10 11 12 13 14 15 16 17 18 19 20 21 22 23 24 25 26 27 28 29 30 31 32 33 34 35 36 37 38 39 40 41 42 43 44 45 46 47 48 49 50
000
ASUS45 KBOU 300507
RWRCO

WEATHER ROUNDUP FOR COLORADO
NATIONAL WEATHER SERVICE DENVER/BOULDER CO
1100 PM MDT SAT AUG 29 2015

NOTE: "FAIR" INDICATES FEW OR NO CLOUDS BELOW 12000 FEET WITH NO
SIGNIFICANT WEATHER AND/OR OBSTRUCTIONS TO VISIBILITY.

COZ001>005-013-030-031-300600-
...NORTHWEST COLORADO...

CITY           SKY/WX    TMP DP  RH WIND       PRES   REMARKS
CRAIG          MOCLDY    63  42  46 E3        30.18R
HAYDEN         NOT AVBL
MEEKER         PTCLDY    59  42  53 NE7       30.21R
MOUNT WERNER   NOT AVBL
STEAMBOAT SPGS PTCLDY    60  40  48 E3        30.24S
WALDEN         PTCLDY    48  37  66 SE10      30.33F
$$

COZ006>008-011-300600-
...WEST CENTRAL VALLEYS...

CITY           SKY/WX    TMP DP  RH WIND       PRES   REMARKS
GRAND JUNCTION MOCLDY    71  42  35 E9        30.06F
MONTROSE       PTCLDY    69  41  36 SE12      30.19S
EAGLE          PTCLDY    63  43  48 E6        30.26S
RIFLE          PTCLDY    67  44  43 CALM      30.15R
DELTA          PTCLDY    73  42  32 NE9       30.13S
NUCLA          PTCLDY    70  36  28 E13       30.22S
$$

COZ017>023-064>068-300600-
...SOUTHWEST COLORADO...

CITY           SKY/WX    TMP DP  RH WIND       PRES   REMARKS
DURANGO        CLEAR     59  46  62 CALM      30.29R
CORTEZ         CLEAR     60  42  51 E6        30.20S
PAGOSA SPRINGS CLEAR     61  44  52 CALM      30.39S
TELLURIDE      CLEAR     58  42  56 SE6       30.49S
WOLF CREEK PAS PTCLDY    46  36  66 SW16      30.71S
$$

COZ009-010-012-014-032>034-037-058>063-300600-
...CENTRAL COLORADO...

CITY           SKY/WX    TMP DP  RH WIND       PRES   REMARKS
ASPEN          PTCLDY    56  39  53 SW7       30.34F
BUENA VISTA    PTCLDY    59  40  48 NW3       30.38R
COPPER MTN     PTCLDY    55  32  41 SW3       30.68F
BERTHOUD PASS  FAIR      46  34  61 W8        30.71F
COTTONWOOD PAS PTCLDY    63  32  31 CALM      30.52S
GUNNISON       PTCLDY    55  39  54 CALM      30.39R
KREMMLING      PTCLDY    55  37  50 CALM      30.32R
LEADVILLE      PTCLDY    50  34  54 SE3       30.50S
MONARCH PASS   PTCLDY    52  34  50 W12       30.78F
SALIDA         PTCLDY    70  41  34 CALM      30.42R
SUNLIGHT       PTCLDY    55  36  47 CALM      30.59F
WILKERSON PASS MOCLDY    52  32  46 S7G17     30.64S
$$

COZ069>075-300600-
...SAN LUIS VALLEY/SANGRE DE CRISTO MOUNTAINS...

CITY           SKY/WX    TMP DP  RH WIND       PRES   REMARKS
ALAMOSA        CLOUDY    57  44  62 SE8       30.35S
LA VETA PASS   NOT AVBL
SAGUACHE       PTCLDY    61  45  55 CALM      30.40R
$$

COZ035-036-038>040-300600-
...NORTHERN COLORADO FRONT RANGE...

CITY           SKY/WX    TMP DP  RH WIND       PRES   REMARKS
DENVER INTL AP PTCLDY    72  37  28 S16       30.14F
DMNS CITY PARK   N/A     75  38  25 SE13G24   30.13S
AURORA         MOCLDY    72  38  28 S18       30.17F
FRONT RANGE AP NOT AVBL
ERIE MUNI ARPT CLEAR     72  40  31 S7        30.11S
BOULDER MUN AP CLEAR     73  41  31 SW6       30.11F
CENTENNIAL     MOCLDY    72  38  29 S15G25    30.19S
BROOMFIELD     NOT AVBL
FORT COLLINS   PTCLDY    70  46  43 SE7       30.11F
LONGMONT       PTCLDY    64  49  59 CALM      30.12F
$$

COZ041-046-047-076>085-087-088-300600-
...PIKES PEAK/PALMER DIVIDE AND SOUTHERN FOOTHILLS...

CITY           SKY/WX    TMP DP  RH WIND       PRES   REMARKS
COLO. SPRINGS  PTCLDY    69  36  29 CALM      30.27F
A. F. ACADEMY  CLEAR     65  37  35 SE8       30.28F
ELLICOTT       CLEAR      1   1 100 S13       30.25F WCI -17
FALCON         CLEAR     60  38  43 MISG      30.32F
FORT CARSON    CLEAR     67  40  38 CALM      30.23F
LIMON          CLEAR     56  42  59 SE7       30.21F
MONUMENT HILL  PTCLDY    63  34  34 S20G26    30.29F
TRINIDAD       CLEAR     67  44  43 W3        30.24F
$$

COZ042>045-048>051-090-091-300600-
...NORTHEAST COLORADO...

CITY           SKY/WX    TMP DP  RH WIND       PRES   REMARKS
GREELEY ARPT   PTCLDY    64  46  52 CALM      30.11S
AKRON          CLEAR     70  36  28 S16       30.13F
BURLINGTON     CLEAR     62  46  55 S9        30.16S
WRAY           CLEAR     71  40  32 S10       30.10S
STERLING       CLEAR     63  45  51 SW8       30.08S
HOLYOKE        CLEAR     64  45  48 S8        30.09F
FORT MORGAN    CLEAR     65  41  41 S7        30.12S
$$

COZ086-089-092>099-300600-
...SOUTHEAST COLORADO...

CITY           SKY/WX    TMP DP  RH WIND       PRES   REMARKS
PUEBLO         CLEAR     71  42  35 E9        30.13S
LA JUNTA       CLEAR     72  41  32 S7        30.14F
LAMAR          CLEAR     69  47  45 S12       30.11S
SPRINGFIELD    NOT AVBL
$$



USA.gov is the U.S. government's official web portal to all federal, state and local government web resources and services.